SCX2134 KAFW-KMSP

Flight info

Callsign SCX2134
Flight time 1h 49m
Altitude 35000
Route NANDR3 TUL J25 MCI ROKKK NITZR4
Aircraft B738/M-SDE2E3FGHIRWXY/LB1

Departure

Time 2026-05-07 00:35
Airport Perot Field/Fort Worth Alliance Airport (KAFW)

Arrival

Time 2026-05-07 02:24
Airport Minneapolis–Saint Paul International Airport / Wold–Chamberlain Field (KMSP)
Time Latitude Longitude Altitude Speed Heading
2026-05-07 00:16 32.98328 -97.32245 690 ft 0 kts 260°
2026-05-07 00:27 32.98329 -97.32241 690 ft 2 kts 260°
2026-05-07 00:27 32.98332 -97.32219 689 ft 3 kts 260°
2026-05-07 00:28 32.98335 -97.32196 690 ft 3 kts 259°
2026-05-07 00:28 32.98341 -97.32176 683 ft 3 kts 223°
2026-05-07 00:28 32.98354 -97.32168 685 ft 2 kts 173°
2026-05-07 00:28 32.98365 -97.32170 682 ft 3 kts 169°
2026-05-07 00:29 32.98381 -97.32174 686 ft 1 kts 169°
2026-05-07 00:29 32.98382 -97.32174 686 ft 0 kts 169°
2026-05-07 00:31 32.98376 -97.32173 685 ft 4 kts 169°
2026-05-07 00:31 32.98320 -97.32161 685 ft 11 kts 170°
2026-05-07 00:31 32.98235 -97.32144 684 ft 14 kts 170°
2026-05-07 00:32 32.98132 -97.32121 687 ft 16 kts 170°
2026-05-07 00:32 32.98019 -97.32098 685 ft 13 kts 170°
2026-05-07 00:32 32.97967 -97.32046 687 ft 11 kts 93°
2026-05-07 00:32 32.97963 -97.31962 684 ft 10 kts 135°
2026-05-07 00:33 32.97894 -97.31942 688 ft 10 kts 170°
2026-05-07 00:33 32.97825 -97.31928 688 ft 10 kts 170°
2026-05-07 00:33 32.97755 -97.31914 685 ft 11 kts 171°
2026-05-07 00:33 32.97677 -97.31899 684 ft 11 kts 169°
2026-05-07 00:34 32.97645 -97.31840 688 ft 9 kts 81°
2026-05-07 00:34 32.97662 -97.31774 690 ft 8 kts 48°
2026-05-07 00:34 32.97690 -97.31769 685 ft 0 kts 351°
2026-05-07 00:34 32.97715 -97.31774 685 ft 16 kts 351°
2026-05-07 00:35 32.98081 -97.31849 685 ft 90 kts 351°
2026-05-07 00:35 32.98918 -97.32018 688 ft 152 kts 351°
2026-05-07 00:35 33.00041 -97.32266 1155 ft 168 kts 350°
2026-05-07 00:35 33.01160 -97.32514 2160 ft 159 kts 353°
2026-05-07 00:36 33.02262 -97.32708 2943 ft 166 kts 354°
2026-05-07 00:36 33.03462 -97.32791 3562 ft 180 kts 10°
2026-05-07 00:36 33.04700 -97.32288 4066 ft 199 kts 21°
2026-05-07 00:36 33.06004 -97.31586 4481 ft 213 kts 24°
2026-05-07 00:37 33.07402 -97.30813 4866 ft 230 kts 24°
2026-05-07 00:37 33.08885 -97.29958 5324 ft 246 kts 25°
2026-05-07 00:37 33.10463 -97.29037 5764 ft 266 kts 22°
2026-05-07 00:37 33.12184 -97.28091 6440 ft 278 kts 21°
2026-05-07 00:38 33.13978 -97.27125 7081 ft 288 kts 20°
2026-05-07 00:38 33.15832 -97.26141 7828 ft 295 kts 20°
2026-05-07 00:38 33.17728 -97.25144 8584 ft 301 kts 19°
2026-05-07 00:38 33.19669 -97.24130 9356 ft 307 kts 19°
2026-05-07 00:39 33.21649 -97.23099 10071 ft 314 kts 19°
2026-05-07 00:39 33.23702 -97.22034 10469 ft 334 kts 19°
2026-05-07 00:39 33.25901 -97.20897 10851 ft 351 kts 19°
2026-05-07 00:39 33.28132 -97.19736 11519 ft 356 kts 19°
2026-05-07 00:40 33.30409 -97.18550 12276 ft 360 kts 18°
2026-05-07 00:40 33.32727 -97.17342 12987 ft 365 kts 18°
2026-05-07 00:40 33.35072 -97.16121 13710 ft 370 kts 18°
2026-05-07 00:40 33.37448 -97.14883 14363 ft 375 kts 17°
2026-05-07 00:41 33.39857 -97.13630 14973 ft 380 kts 17°
2026-05-07 00:41 33.42300 -97.12358 15598 ft 386 kts 17°
2026-05-07 00:41 33.44800 -97.11182 16249 ft 386 kts
2026-05-07 00:41 33.47365 -97.10511 16874 ft 380 kts 359°
2026-05-07 00:42 33.49997 -97.10155 17528 ft 383 kts 356°
2026-05-07 00:42 33.52659 -97.09847 18165 ft 386 kts 356°
2026-05-07 00:42 33.55354 -97.09544 18746 ft 391 kts 355°
2026-05-07 00:42 33.58073 -97.09232 19301 ft 395 kts 355°
2026-05-07 00:43 33.60822 -97.08906 19855 ft 399 kts 355°
2026-05-07 00:43 33.63598 -97.08568 20420 ft 403 kts 355°
2026-05-07 00:43 33.66394 -97.08220 20959 ft 407 kts 355°
2026-05-07 00:43 33.69230 -97.07863 21477 ft 411 kts 355°
2026-05-07 00:44 33.72051 -97.07506 21991 ft 415 kts 355°
2026-05-07 00:44 33.74939 -97.07139 22499 ft 419 kts 355°
2026-05-07 00:44 33.77851 -97.06769 22995 ft 423 kts 355°
2026-05-07 00:44 33.80794 -97.06394 23484 ft 427 kts 355°
2026-05-07 00:45 33.83767 -97.06015 23909 ft 431 kts 354°
2026-05-07 00:45 33.86763 -97.05633 24315 ft 435 kts 354°
2026-05-07 00:45 33.89784 -97.05247 24734 ft 438 kts 354°
2026-05-07 00:45 33.92819 -97.04859 25148 ft 441 kts 354°
2026-05-07 00:46 33.95841 -97.04473 25531 ft 444 kts 354°
2026-05-07 00:46 33.98929 -97.04078 25925 ft 448 kts 354°
2026-05-07 00:46 34.02039 -97.03680 26319 ft 451 kts 354°
2026-05-07 00:46 34.05169 -97.03280 26694 ft 454 kts 353°
2026-05-07 00:47 34.08320 -97.02877 27062 ft 457 kts 353°
2026-05-07 00:47 34.11492 -97.02469 27441 ft 460 kts 353°
2026-05-07 00:47 34.14694 -97.02058 27818 ft 463 kts 353°
2026-05-07 00:47 34.17911 -97.01644 28179 ft 466 kts 353°
2026-05-07 00:48 34.21148 -97.01228 28532 ft 470 kts 353°
2026-05-07 00:48 34.24405 -97.00808 28878 ft 472 kts 353°
2026-05-07 00:48 34.27643 -97.00390 29208 ft 475 kts 353°
2026-05-07 00:48 34.30938 -96.99965 29548 ft 478 kts 353°
2026-05-07 00:49 34.34261 -96.99536 29887 ft 482 kts 353°
2026-05-07 00:49 34.37615 -96.98818 30178 ft 500 kts
2026-05-07 00:49 34.40980 -96.97478 30429 ft 519 kts 13°
2026-05-07 00:49 34.44257 -96.95532 30716 ft 528 kts 18°
2026-05-07 00:50 34.47504 -96.93406 31016 ft 532 kts 19°
2026-05-07 00:50 34.50740 -96.91218 31340 ft 533 kts 20°
2026-05-07 00:50 34.53978 -96.89018 31683 ft 533 kts 19°
2026-05-07 00:50 34.57222 -96.86836 32024 ft 533 kts 19°
2026-05-07 00:51 34.60463 -96.84684 32348 ft 533 kts 19°
2026-05-07 00:51 34.63680 -96.82572 32663 ft 532 kts 18°
2026-05-07 00:51 34.66945 -96.80443 32988 ft 533 kts 18°
2026-05-07 00:51 34.70215 -96.78316 33307 ft 533 kts 18°
2026-05-07 00:52 34.73483 -96.76190 33605 ft 533 kts 18°
2026-05-07 00:52 34.76754 -96.74060 33905 ft 534 kts 18°
2026-05-07 00:52 34.80034 -96.71920 34184 ft 534 kts 18°
2026-05-07 00:52 34.83301 -96.69783 34507 ft 533 kts 18°
2026-05-07 00:53 34.86555 -96.67649 34867 ft 530 kts 18°
2026-05-07 00:53 34.89753 -96.65550 35104 ft 530 kts 18°
2026-05-07 00:53 34.96295 -96.61263 35093 ft 534 kts 18°
2026-05-07 00:54 35.02808 -96.56974 35081 ft 528 kts 17°
2026-05-07 00:54 35.09260 -96.52717 35090 ft 526 kts 17°
2026-05-07 00:55 35.15697 -96.48473 35084 ft 526 kts 17°
2026-05-07 00:55 35.22103 -96.44241 35090 ft 527 kts 17°
2026-05-07 00:56 35.28554 -96.39969 35096 ft 527 kts 17°
2026-05-07 00:56 35.35007 -96.35687 35098 ft 528 kts 17°
2026-05-07 00:57 35.41472 -96.31388 35103 ft 529 kts 17°
2026-05-07 00:57 35.47948 -96.27075 35105 ft 530 kts 17°
2026-05-07 00:58 35.54380 -96.22782 35111 ft 530 kts 17°
2026-05-07 00:58 35.60869 -96.18444 35107 ft 531 kts 17°
2026-05-07 00:59 35.70610 -96.11916 35100 ft 532 kts 17°
2026-05-07 01:00 35.77099 -96.07556 35100 ft 532 kts 17°
2026-05-07 01:00 35.83548 -96.03216 35102 ft 532 kts 17°
2026-05-07 01:01 35.90032 -95.98844 35113 ft 531 kts 17°
2026-05-07 01:01 35.96517 -95.94463 35124 ft 531 kts 17°
2026-05-07 01:02 36.02993 -95.90080 35106 ft 531 kts 17°
2026-05-07 01:02 36.09424 -95.85719 35122 ft 530 kts 17°
2026-05-07 01:03 36.15892 -95.81325 35122 ft 530 kts 17°
2026-05-07 01:03 36.22476 -95.77668 35105 ft 502 kts
2026-05-07 01:04 36.29183 -95.75501 35113 ft 496 kts 358°
2026-05-07 01:04 36.35843 -95.73445 35109 ft 497 kts 358°
2026-05-07 01:05 36.42557 -95.71305 35107 ft 499 kts 359°
2026-05-07 01:05 36.49285 -95.69107 35104 ft 501 kts 359°
2026-05-07 01:06 36.56027 -95.66885 35111 ft 502 kts 359°
2026-05-07 01:06 36.62773 -95.64658 35113 ft 502 kts 359°
2026-05-07 01:07 36.69485 -95.62443 35114 ft 503 kts 359°
2026-05-07 01:07 36.76253 -95.60206 35113 ft 503 kts 359°
2026-05-07 01:08 36.83019 -95.57966 35113 ft 503 kts 359°
2026-05-07 01:08 36.89748 -95.55733 35121 ft 503 kts 359°
2026-05-07 01:09 36.96519 -95.53483 35119 ft 503 kts 359°
2026-05-07 01:09 37.03282 -95.51231 35121 ft 503 kts 359°
2026-05-07 01:10 37.10047 -95.48974 35121 ft 503 kts 359°
2026-05-07 01:10 37.16801 -95.46717 35124 ft 502 kts 359°
2026-05-07 01:11 37.23504 -95.44473 35130 ft 502 kts 359°
2026-05-07 01:11 37.30250 -95.42211 35135 ft 501 kts 359°
2026-05-07 01:12 37.36980 -95.39949 35134 ft 501 kts 359°
2026-05-07 01:12 37.43704 -95.37686 35131 ft 500 kts 359°
2026-05-07 01:13 37.50382 -95.35434 35129 ft 500 kts 359°
2026-05-07 01:13 37.57093 -95.33166 35130 ft 499 kts 359°
2026-05-07 01:14 37.63794 -95.30898 35133 ft 499 kts 359°
2026-05-07 01:14 37.70491 -95.28627 35138 ft 498 kts 359°
2026-05-07 01:15 37.77185 -95.26353 35135 ft 498 kts 359°
2026-05-07 01:15 37.83836 -95.24089 35135 ft 498 kts 359°
2026-05-07 01:16 37.90524 -95.21808 35139 ft 498 kts 359°
2026-05-07 01:16 37.97213 -95.19522 35138 ft 498 kts 359°
2026-05-07 01:17 38.03902 -95.17232 35140 ft 498 kts 359°
2026-05-07 01:17 38.10542 -95.14954 35146 ft 498 kts 359°
2026-05-07 01:18 38.17226 -95.12658 35135 ft 497 kts 359°
2026-05-07 01:18 38.23895 -95.10359 35133 ft 497 kts 359°
2026-05-07 01:19 38.30569 -95.08053 35131 ft 497 kts 359°
2026-05-07 01:19 38.37244 -95.05743 35126 ft 497 kts 359°
2026-05-07 01:20 38.43867 -95.03445 35123 ft 496 kts 360°
2026-05-07 01:20 38.50526 -95.01131 35119 ft 496 kts
2026-05-07 01:21 38.57170 -94.98818 35124 ft 495 kts
2026-05-07 01:21 38.63771 -94.96515 35132 ft 494 kts
2026-05-07 01:22 38.70391 -94.94201 35132 ft 493 kts
2026-05-07 01:22 38.77004 -94.91885 35138 ft 492 kts
2026-05-07 01:23 38.83604 -94.89570 35130 ft 491 kts
2026-05-07 01:23 38.90187 -94.87256 35129 ft 490 kts
2026-05-07 01:24 38.96704 -94.84961 35123 ft 488 kts
2026-05-07 01:24 39.03249 -94.82651 35117 ft 487 kts
2026-05-07 01:25 39.09773 -94.80345 35113 ft 486 kts
2026-05-07 01:25 39.16282 -94.78040 35112 ft 485 kts
2026-05-07 01:26 39.22743 -94.75747 35110 ft 484 kts
2026-05-07 01:26 39.29224 -94.73497 35100 ft 478 kts 359°
2026-05-07 01:27 39.35700 -94.72105 35108 ft 468 kts 354°
2026-05-07 01:27 39.42152 -94.70986 35108 ft 468 kts 354°
2026-05-07 01:28 39.48617 -94.69833 35118 ft 469 kts 355°
2026-05-07 01:28 39.55043 -94.68624 35122 ft 470 kts 356°
2026-05-07 01:29 39.61526 -94.67376 35116 ft 471 kts 356°
2026-05-07 01:29 39.68011 -94.66119 35111 ft 471 kts 356°
2026-05-07 01:30 39.74496 -94.64863 35109 ft 471 kts 356°
2026-05-07 01:30 39.80940 -94.63614 35109 ft 471 kts 356°
2026-05-07 01:31 39.87412 -94.62358 35112 ft 470 kts 356°
2026-05-07 01:31 39.93887 -94.61099 35110 ft 470 kts 356°
2026-05-07 01:32 40.00342 -94.59842 35116 ft 469 kts 356°
2026-05-07 01:32 40.06799 -94.58582 35117 ft 469 kts 356°
2026-05-07 01:33 40.13201 -94.57330 35106 ft 468 kts 356°
2026-05-07 01:33 40.19637 -94.56070 35101 ft 468 kts 356°
2026-05-07 01:34 40.26070 -94.54807 35108 ft 467 kts 356°
2026-05-07 01:34 40.32498 -94.53543 35103 ft 467 kts 357°
2026-05-07 01:35 40.38880 -94.52286 35105 ft 467 kts 357°
2026-05-07 01:35 40.45301 -94.51019 35108 ft 467 kts 357°
2026-05-07 01:36 40.51720 -94.49750 35110 ft 466 kts 357°
2026-05-07 01:36 40.58138 -94.48478 35111 ft 466 kts 357°
2026-05-07 01:37 40.64550 -94.47205 35102 ft 466 kts 358°
2026-05-07 01:37 40.70918 -94.45938 35099 ft 465 kts 358°
2026-05-07 01:38 40.77314 -94.44663 35094 ft 465 kts 358°
2026-05-07 01:38 40.83708 -94.43386 35090 ft 464 kts 358°
2026-05-07 01:39 40.90088 -94.42109 35087 ft 464 kts 358°
2026-05-07 01:39 40.96421 -94.40840 35078 ft 463 kts 358°
2026-05-07 01:40 41.02786 -94.39561 35077 ft 462 kts 358°
2026-05-07 01:40 41.09143 -94.38282 35078 ft 462 kts 359°
2026-05-07 01:41 41.15486 -94.37002 35084 ft 461 kts 359°
2026-05-07 01:41 41.21775 -94.35731 35086 ft 460 kts 359°
2026-05-07 01:42 41.28101 -94.34451 35094 ft 459 kts 359°
2026-05-07 01:42 41.34408 -94.33172 35089 ft 458 kts 359°
2026-05-07 01:43 41.40704 -94.31892 35095 ft 457 kts 359°
2026-05-07 01:43 41.46953 -94.30620 35093 ft 457 kts 359°
2026-05-07 01:44 41.53225 -94.29340 35090 ft 456 kts 359°
2026-05-07 01:44 41.59486 -94.28060 35080 ft 455 kts 360°
2026-05-07 01:45 41.65743 -94.26779 35073 ft 454 kts 360°
2026-05-07 01:45 41.71993 -94.25496 35057 ft 454 kts 360°
2026-05-07 01:46 41.78191 -94.24222 35054 ft 453 kts
2026-05-07 01:46 41.84423 -94.22937 35056 ft 453 kts
2026-05-07 01:47 41.90646 -94.21653 35054 ft 452 kts
2026-05-07 01:47 41.96856 -94.20368 35064 ft 452 kts
2026-05-07 01:48 42.03029 -94.19088 35077 ft 451 kts
2026-05-07 01:48 42.09232 -94.17800 35085 ft 450 kts
2026-05-07 01:49 42.15414 -94.16514 35089 ft 450 kts
2026-05-07 01:49 42.21599 -94.15224 35095 ft 449 kts
2026-05-07 01:50 42.27737 -94.13942 35087 ft 449 kts
2026-05-07 01:50 42.33901 -94.12652 35077 ft 448 kts
2026-05-07 01:51 42.40062 -94.11359 35070 ft 448 kts
2026-05-07 01:51 42.46216 -94.10066 35067 ft 447 kts
2026-05-07 01:52 42.51326 -94.08990 35060 ft 447 kts
2026-05-07 01:52 42.58474 -94.07482 35064 ft 447 kts
2026-05-07 01:53 42.64460 -94.04957 35081 ft 462 kts 22°
2026-05-07 01:53 42.69954 -94.00543 35070 ft 456 kts 24°
2026-05-07 01:54 42.74483 -93.96886 35013 ft 456 kts 23°
2026-05-07 01:54 42.77234 -93.94718 34678 ft 455 kts 23°
2026-05-07 01:54 42.79961 -93.92588 34336 ft 451 kts 22°
2026-05-07 01:54 42.82678 -93.90472 33958 ft 448 kts 22°
2026-05-07 01:55 42.86240 -93.87695 33385 ft 444 kts 22°
2026-05-07 01:55 42.88052 -93.86294 33107 ft 442 kts 22°
2026-05-07 01:55 42.90717 -93.84245 32713 ft 438 kts 22°
2026-05-07 01:55 42.93328 -93.82241 32330 ft 435 kts 22°
2026-05-07 01:56 42.95956 -93.80224 31958 ft 432 kts 22°
2026-05-07 01:56 42.98563 -93.78219 31591 ft 429 kts 22°
2026-05-07 01:56 43.01150 -93.76226 31228 ft 426 kts 22°
2026-05-07 01:56 43.03720 -93.74242 30850 ft 423 kts 22°
2026-05-07 01:57 43.06270 -93.72272 30488 ft 420 kts 22°
2026-05-07 01:57 43.08804 -93.70311 30123 ft 417 kts 22°
2026-05-07 01:57 43.11317 -93.68365 29679 ft 414 kts 22°
2026-05-07 01:57 43.13817 -93.66426 29274 ft 410 kts 22°
2026-05-07 01:58 43.16249 -93.64538 28918 ft 405 kts 22°
2026-05-07 01:58 43.18692 -93.62641 28547 ft 401 kts 22°
2026-05-07 01:58 43.21106 -93.60765 28176 ft 397 kts 22°
2026-05-07 01:58 43.23490 -93.58911 27825 ft 393 kts 22°
2026-05-07 01:59 43.25856 -93.57069 27457 ft 389 kts 22°
2026-05-07 01:59 43.28242 -93.55421 27077 ft 377 kts 10°
2026-05-07 01:59 43.30738 -93.54791 26792 ft 358 kts 356°
2026-05-07 01:59 43.33206 -93.54572 26425 ft 354 kts 355°
2026-05-07 02:00 43.35655 -93.54409 26075 ft 351 kts 355°
2026-05-07 02:00 43.38047 -93.54245 25732 ft 348 kts 355°
2026-05-07 02:00 43.40456 -93.54063 25389 ft 345 kts 355°
2026-05-07 02:00 43.42848 -93.53866 25053 ft 343 kts 356°
2026-05-07 02:01 43.45225 -93.53662 24709 ft 341 kts 356°
2026-05-07 02:01 43.47587 -93.53455 24366 ft 339 kts 356°
2026-05-07 02:01 43.49932 -93.53249 24014 ft 337 kts 356°
2026-05-07 02:01 43.52271 -93.53044 23616 ft 337 kts 356°
2026-05-07 02:02 43.54608 -93.52839 23165 ft 336 kts 356°
2026-05-07 02:02 43.56910 -93.52637 22744 ft 335 kts 356°
2026-05-07 02:02 43.59225 -93.52433 22364 ft 332 kts 356°
2026-05-07 02:02 43.61527 -93.52230 21956 ft 331 kts 356°
2026-05-07 02:03 43.63820 -93.52028 21571 ft 329 kts 356°
2026-05-07 02:03 43.66096 -93.51828 21182 ft 327 kts 356°
2026-05-07 02:03 43.68363 -93.51628 20798 ft 326 kts 356°
2026-05-07 02:03 43.70619 -93.51429 20421 ft 324 kts 356°
2026-05-07 02:04 43.72868 -93.51231 20046 ft 323 kts 356°
2026-05-07 02:04 43.75104 -93.51034 19673 ft 321 kts 356°
2026-05-07 02:04 43.77305 -93.50840 19310 ft 320 kts 356°
2026-05-07 02:04 43.79523 -93.50644 18944 ft 319 kts 356°
2026-05-07 02:05 43.81733 -93.50449 18577 ft 318 kts 356°
2026-05-07 02:05 43.83935 -93.50255 18185 ft 317 kts 356°
2026-05-07 02:05 43.86143 -93.50060 17735 ft 317 kts 356°
2026-05-07 02:05 43.88336 -93.49865 17354 ft 315 kts 356°
2026-05-07 02:06 43.90521 -93.49671 16979 ft 313 kts 356°
2026-05-07 02:06 43.92687 -93.49478 16606 ft 309 kts 356°
2026-05-07 02:06 43.94816 -93.49287 16242 ft 303 kts 356°
2026-05-07 02:06 43.96900 -93.49097 15898 ft 297 kts 357°
2026-05-07 02:07 43.98943 -93.48875 15589 ft 291 kts 358°
2026-05-07 02:07 44.02914 -93.48413 15003 ft 286 kts 358°
2026-05-07 02:07 44.04890 -93.48184 14711 ft 286 kts 358°
2026-05-07 02:08 44.06882 -93.47957 14417 ft 288 kts 358°
2026-05-07 02:08 44.08891 -93.47727 14113 ft 291 kts 358°
2026-05-07 02:08 44.10915 -93.47495 13797 ft 293 kts 358°
2026-05-07 02:08 44.12942 -93.47261 13449 ft 291 kts 359°
2026-05-07 02:09 44.14952 -93.47029 13124 ft 289 kts 359°
2026-05-07 02:09 44.16945 -93.46799 12809 ft 286 kts 359°
2026-05-07 02:09 44.18895 -93.46486 12495 ft 288 kts
2026-05-07 02:09 44.20795 -93.45582 12228 ft 289 kts 16°
2026-05-07 02:10 44.22646 -93.44493 11900 ft 288 kts 17°
2026-05-07 02:10 44.24494 -93.43412 11600 ft 286 kts 16°
2026-05-07 02:10 44.26334 -93.42366 11289 ft 285 kts 16°
2026-05-07 02:10 44.28167 -93.41341 10990 ft 283 kts 16°
2026-05-07 02:11 44.29989 -93.40322 10715 ft 281 kts 16°
2026-05-07 02:11 44.31799 -93.39310 10443 ft 279 kts 16°
2026-05-07 02:11 44.33601 -93.38302 10176 ft 278 kts 16°
2026-05-07 02:11 44.35368 -93.37314 9908 ft 277 kts 16°
2026-05-07 02:12 44.37139 -93.36281 9610 ft 277 kts 19°
2026-05-07 02:12 44.38860 -93.35090 9329 ft 275 kts 21°
2026-05-07 02:12 44.40555 -93.33845 9057 ft 274 kts 22°
2026-05-07 02:12 44.42228 -93.32612 8791 ft 272 kts 22°
2026-05-07 02:13 44.43900 -93.31392 8522 ft 270 kts 22°
2026-05-07 02:13 44.45562 -93.30188 8271 ft 268 kts 22°
2026-05-07 02:13 44.47196 -93.28947 8008 ft 269 kts 31°
2026-05-07 02:13 44.48454 -93.27021 7939 ft 270 kts 52°
2026-05-07 02:14 44.49501 -93.24832 7865 ft 273 kts 53°
2026-05-07 02:14 44.50548 -93.22619 7787 ft 278 kts 53°
2026-05-07 02:14 44.51622 -93.20349 7700 ft 280 kts 53°
2026-05-07 02:14 44.52697 -93.18083 7604 ft 279 kts 53°
2026-05-07 02:15 44.53772 -93.15822 7517 ft 278 kts 53°
2026-05-07 02:15 44.54842 -93.13574 7434 ft 277 kts 53°
2026-05-07 02:15 44.55908 -93.11338 7352 ft 276 kts 53°
2026-05-07 02:15 44.56973 -93.09105 7280 ft 275 kts 53°
2026-05-07 02:16 44.58033 -93.06881 7199 ft 274 kts 53°
2026-05-07 02:16 44.58738 -93.05402 7133 ft 277 kts 53°
2026-05-07 02:16 44.60154 -93.02431 7022 ft 273 kts 52°
2026-05-07 02:16 44.61389 -93.00542 7007 ft 254 kts 32°
2026-05-07 02:17 44.62788 -92.99144 6994 ft 241 kts 30°
2026-05-07 02:17 44.64127 -92.97748 6803 ft 239 kts 33°
2026-05-07 02:17 44.65422 -92.96316 6619 ft 235 kts 34°
2026-05-07 02:17 44.66691 -92.94900 6432 ft 232 kts 34°
2026-05-07 02:18 44.67951 -92.93495 6240 ft 232 kts 34°
2026-05-07 02:18 44.69310 -92.92351 6025 ft 224 kts
2026-05-07 02:18 44.70796 -92.92375 5798 ft 216 kts 339°
2026-05-07 02:18 44.72101 -92.93310 5564 ft 208 kts 322°
2026-05-07 02:19 44.73250 -92.94515 5279 ft 203 kts 320°
2026-05-07 02:19 44.74360 -92.95717 5009 ft 200 kts 320°
2026-05-07 02:19 44.75460 -92.96898 4739 ft 197 kts 321°
2026-05-07 02:19 44.76537 -92.98045 4494 ft 191 kts 321°
2026-05-07 02:20 44.77580 -92.99153 4252 ft 185 kts 321°
2026-05-07 02:20 44.78549 -93.00300 4054 ft 180 kts 309°
2026-05-07 02:20 44.79295 -93.01677 3965 ft 177 kts 306°
2026-05-07 02:20 44.79988 -93.03078 3734 ft 177 kts 302°
2026-05-07 02:21 44.80645 -93.04545 3502 ft 177 kts 301°
2026-05-07 02:21 44.81266 -93.05981 3265 ft 166 kts 301°
2026-05-07 02:21 44.81847 -93.07333 3032 ft 157 kts 301°
2026-05-07 02:21 44.82403 -93.08626 2839 ft 155 kts 301°
2026-05-07 02:22 44.82945 -93.09887 2612 ft 146 kts 301°
2026-05-07 02:22 44.83458 -93.11092 2361 ft 141 kts 301°
2026-05-07 02:22 44.83947 -93.12254 2129 ft 136 kts 301°
2026-05-07 02:22 44.84436 -93.13388 1907 ft 135 kts 302°
2026-05-07 02:23 44.84928 -93.14499 1728 ft 137 kts 301°
2026-05-07 02:23 44.85429 -93.15656 1520 ft 140 kts 300°
2026-05-07 02:23 44.85928 -93.16841 1360 ft 142 kts 300°
2026-05-07 02:23 44.86445 -93.18032 1192 ft 142 kts 301°
2026-05-07 02:24 44.86952 -93.19200 1016 ft 137 kts 301°
2026-05-07 02:24 44.87442 -93.20330 837 ft 135 kts 301°
2026-05-07 02:24 44.87875 -93.21331 824 ft 93 kts 300°
2026-05-07 02:24 44.88095 -93.21838 820 ft 30 kts 301°
2026-05-07 02:25 44.88170 -93.22037 825 ft 15 kts 277°
2026-05-07 02:25 44.88117 -93.22150 825 ft 14 kts 227°
2026-05-07 02:25 44.88051 -93.22246 823 ft 13 kts 229°
2026-05-07 02:25 44.87990 -93.22342 825 ft 13 kts 227°
2026-05-07 02:26 44.87928 -93.22430 823 ft 13 kts 226°
2026-05-07 02:26 44.87867 -93.22518 824 ft 13 kts 225°
2026-05-07 02:26 44.87798 -93.22617 822 ft 16 kts 225°
2026-05-07 02:26 44.87711 -93.22740 822 ft 18 kts 225°
2026-05-07 02:27 44.87622 -93.22865 823 ft 18 kts 225°
2026-05-07 02:27 44.87537 -93.22983 821 ft 17 kts 225°
2026-05-07 02:27 44.87454 -93.23099 824 ft 16 kts 225°
2026-05-07 02:27 44.87400 -93.23199 824 ft 11 kts 267°
2026-05-07 02:28 44.87447 -93.23285 825 ft 11 kts 314°
2026-05-07 02:28 44.87501 -93.23360 826 ft 11 kts 311°
2026-05-07 02:28 44.87535 -93.23461 825 ft 12 kts 291°
2026-05-07 02:28 44.87570 -93.23587 824 ft 15 kts 291°
2026-05-07 02:29 44.87610 -93.23733 824 ft 16 kts 291°
2026-05-07 02:29 44.87608 -93.23883 824 ft 15 kts 256°
2026-05-07 02:29 44.87589 -93.24022 823 ft 12 kts 259°
2026-05-07 02:29 44.87628 -93.24093 824 ft 11 kts 348°
2026-05-07 02:30 44.87702 -93.24111 824 ft 11 kts 349°
2026-05-07 02:30 44.87780 -93.24131 824 ft 11 kts 349°
2026-05-07 02:30 44.87831 -93.24169 824 ft 8 kts 292°
2026-05-07 02:30 44.87825 -93.24242 824 ft 7 kts 259°
2026-05-07 02:31 44.87816 -93.24312 821 ft 7 kts 260°
2026-05-07 02:31 44.87797 -93.24368 822 ft 6 kts 201°
2026-05-07 02:31 44.87756 -93.24372 824 ft 6 kts 182°
2026-05-07 02:31 44.87738 -93.24373 824 ft 2 kts 182°
2026-05-07 02:32 44.87733 -93.24373 822 ft 0 kts 182°